• In Hungary
  • List of Countries
  • For 7 days
  • Water Temperature
  • Satellite Maps
  • Weather Map
  • News
  • Weather Widgets
  • user-avatar
    Login

    Hourly Weather Severobaykalsk

    Today, 20 October, Friday

    Time Temperature Precipitation Wind Pressure Humidity
    00:00 -12°C° 0 mm 2 mps 724 mmHg 77%
    01:00 -12°C° 0 mm 2 mps 724 mmHg 75%
    02:00 -12°C° 0 mm 2 mps 724 mmHg 74%
    03:00 -12°C° 0 mm 2 mps 724 mmHg 73%
    04:00 -12°C° 0 mm 2 mps 725 mmHg 73%
    05:00 -12°C° 0 mm 2 mps 725 mmHg 71%
    06:00 -12°C° 0 mm 2 mps 725 mmHg 69%
    07:00 -12°C° 0 mm 2 mps 726 mmHg 67%
    08:00 -9°C° 0 mm 2 mps 725 mmHg 64%
    09:00 -7°C° 0 mm 2 mps 725 mmHg 60%
    10:00 -2°C° 0 mm 1 mps 725 mmHg 57%
    11:00 -2°C° 0 mm 1 mps 725 mmHg 55%
    12:00 -1°C° 0 mm 1 mps 725 mmHg 53%
    13:00 0°C° 0 mm 1 mps 724 mmHg 52%
    14:00 -1°C° 0 mm 1 mps 724 mmHg 55%
    15:00 -2°C° 0 mm 1 mps 724 mmHg 59%
    16:00 -3°C° 0 mm 1 mps 724 mmHg 62%
    17:00 -4°C° 0 mm 1 mps 724 mmHg 60%
    18:00 -6°C° 0 mm 1 mps 724 mmHg 59%
    19:00 -7°C° 0 mm 2 mps 724 mmHg 57%
    20:00 -7°C° 0 mm 2 mps 724 mmHg 55%
    21:00 -6°C° 0 mm 1 mps 724 mmHg 53%
    22:00 -6°C° 0 mm 1 mps 724 mmHg 51%
    23:00 -6°C° 0 mm 1 mps 724 mmHg 50%

    Tomorrow, 21 October, Saturday

    Time Temperature Precipitation Wind Pressure Humidity
    00:00 -6°C° 0 mm 1 mps 723 mmHg 49%
    01:00 -4°C° 0 mm 1 mps 723 mmHg 49%
    02:00 -4°C° 0 mm 1 mps 723 mmHg 48%
    03:00 -4°C° 0 mm 1 mps 723 mmHg 48%
    04:00 -4°C° 0 mm 1 mps 722 mmHg 48%
    05:00 -4°C° 0 mm 1 mps 722 mmHg 47%
    06:00 -3°C° 0 mm 1 mps 722 mmHg 47%
    07:00 -3°C° 0 mm 1 mps 722 mmHg 46%
    08:00 -1°C° 0 mm 1 mps 722 mmHg 47%
    09:00 +1°C° 0 mm 1 mps 722 mmHg 48%
    10:00 +3°C° 0 mm 1 mps 721 mmHg 49%
    11:00 +4°C° 0 mm 1 mps 721 mmHg 51%
    12:00 +4°C° 0 mm 1 mps 721 mmHg 52%
    13:00 +4°C° 0 mm 1 mps 721 mmHg 53%
    14:00 +3°C° 0 mm 1 mps 721 mmHg 55%
    15:00 +2°C° 0 mm 1 mps 721 mmHg 57%
    16:00 -1°C° 0 mm 2 mps 721 mmHg 59%
    17:00 -2°C° 0 mm 2 mps 721 mmHg 60%
    18:00 -2°C° 0 mm 2 mps 722 mmHg 60%
    19:00 -3°C° 0 mm 2 mps 722 mmHg 60%
    20:00 -3°C° 0 mm 2 mps 722 mmHg 61%
    21:00 -3°C° 0 mm 2 mps 722 mmHg 62%
    22:00 -3°C° 0 mm 2 mps 722 mmHg 63%
    23:00 -3°C° 0 mm 2 mps 722 mmHg 65%

    Day after tomorrow, 22 October, Sunday

    Time Temperature Precipitation Wind Pressure Humidity
    00:00 -3°C° 0 mm 2 mps 722 mmHg 67%
    01:00 -3°C° 0 mm 2 mps 722 mmHg 69%
    02:00 -3°C° 0 mm 2 mps 721 mmHg 71%
    03:00 -4°C° 0 mm 3 mps 721 mmHg 72%
    04:00 -2°C° 0 mm 3 mps 721 mmHg 74%
    05:00 -2°C° 0 mm 3 mps 721 mmHg 76%
    06:00 -1°C° 0 mm 3 mps 721 mmHg 78%
    07:00 0°C° 0 mm 3 mps 721 mmHg 80%
    08:00 +1°C° 0.1 mm 3 mps 720 mmHg 82%
    09:00 +2°C° 0.1 mm 3 mps 720 mmHg 83%
    10:00 +3°C° 0.1 mm 3 mps 720 mmHg 84%
    11:00 +3°C° 0.1 mm 3 mps 720 mmHg 85%
    12:00 +4°C° 0.1 mm 3 mps 719 mmHg 85%
    13:00 +4°C° 0.1 mm 3 mps 719 mmHg 86%
    14:00 +4°C° 0 mm 3 mps 719 mmHg 85%
    15:00 +4°C° 0 mm 2 mps 719 mmHg 85%
    16:00 +4°C° 0 mm 2 mps 719 mmHg 85%
    17:00 +3°C° 0 mm 2 mps 719 mmHg 84%
    18:00 +3°C° 0 mm 2 mps 719 mmHg 83%
    19:00 +3°C° 0 mm 2 mps 719 mmHg 82%
    20:00 +3°C° 0 mm 2 mps 719 mmHg 81%
    21:00 +3°C° 0 mm 2 mps 719 mmHg 80%
    22:00 +2°C° 0 mm 2 mps 719 mmHg 79%
    23:00 +2°C° 0 mm 2 mps 718 mmHg 78%

    23 October, Monday

    Time Temperature Precipitation Wind Pressure Humidity
    00:00 +2°C° 0 mm 2 mps 718 mmHg 77%
    01:00 +2°C° 0 mm 2 mps 718 mmHg 76%
    02:00 +3°C° 0 mm 1 mps 717 mmHg 76%
    03:00 +4°C° 0 mm 1 mps 717 mmHg 75%
    04:00 +4°C° 0 mm 1 mps 717 mmHg 74%
    05:00 +4°C° 0 mm 1 mps 717 mmHg 74%
    06:00 +4°C° 0 mm 1 mps 717 mmHg 73%
    07:00 +4°C° 0 mm 1 mps 717 mmHg 73%
    08:00 +5°C° 0 mm 1 mps 717 mmHg 75%
    09:00 +5°C° 0 mm 2 mps 716 mmHg 76%
    10:00 +6°C° 0 mm 2 mps 716 mmHg 78%
    11:00 +7°C° 0 mm 2 mps 716 mmHg 79%
    12:00 +7°C° 0 mm 2 mps 716 mmHg 80%
    13:00 +7°C° 0 mm 2 mps 715 mmHg 80%
    14:00 +6°C° 0.2 mm 2 mps 716 mmHg 82%
    15:00 +5°C° 0.2 mm 3 mps 716 mmHg 83%
    16:00 +4°C° 0.2 mm 3 mps 716 mmHg 84%
    17:00 +4°C° 0.5 mm 3 mps 717 mmHg 86%
    18:00 +4°C° 0.5 mm 3 mps 718 mmHg 88%
    19:00 +4°C° 0.5 mm 2 mps 718 mmHg 90%
    20:00 +3°C° 0.2 mm 3 mps 719 mmHg 90%
    21:00 +3°C° 0.2 mm 3 mps 719 mmHg 91%
    22:00 +2°C° 0.2 mm 3 mps 719 mmHg 92%
    23:00 +2°C° 0.1 mm 3 mps 720 mmHg 92%

    24 October, Tuesday

    Time Temperature Precipitation Wind Pressure Humidity
    00:00 +2°C° 0.1 mm 3 mps 720 mmHg 92%
    01:00 +1°C° 0.1 mm 3 mps 720 mmHg 93%
    02:00 +1°C° 0.1 mm 3 mps 720 mmHg 92%
    03:00 +1°C° 0.1 mm 3 mps 721 mmHg 91%
    04:00 +1°C° 0.1 mm 2 mps 721 mmHg 91%
    05:00 +1°C° 0.1 mm 2 mps 721 mmHg 91%
    06:00 -1°C° 0.1 mm 2 mps 722 mmHg 90%
    07:00 -1°C° 0.1 mm 2 mps 722 mmHg 90%
    08:00 -1°C° 0 mm 3 mps 723 mmHg 86%
    09:00 0°C° 0 mm 3 mps 723 mmHg 82%
    10:00 0°C° 0 mm 3 mps 723 mmHg 78%
    11:00 0°C° 0 mm 3 mps 722 mmHg 77%
    12:00 0°C° 0 mm 3 mps 722 mmHg 76%
    13:00 0°C° 0 mm 3 mps 722 mmHg 75%
    14:00 0°C° 0 mm 3 mps 722 mmHg 78%
    15:00 -1°C° 0 mm 3 mps 722 mmHg 81%
    16:00 -2°C° 0 mm 2 mps 722 mmHg 84%
    17:00 -2°C° 0.2 mm 2 mps 722 mmHg 86%
    18:00 -2°C° 0.2 mm 2 mps 722 mmHg 87%
    19:00 -2°C° 0.2 mm 2 mps 722 mmHg 89%
    20:00 -2°C° 0.3 mm 2 mps 722 mmHg 89%
    21:00 -2°C° 0.3 mm 2 mps 722 mmHg 90%
    22:00 +1°C° 0.3 mm 1 mps 721 mmHg 91%
    23:00 +1°C° 0.2 mm 1 mps 721 mmHg 90%

    25 October, Wednesday

    Time Temperature Precipitation Wind Pressure Humidity
    00:00 +1°C° 0.2 mm 1 mps 721 mmHg 90%
    01:00 +1°C° 0.2 mm 1 mps 721 mmHg 90%
    02:00 +1°C° 0.1 mm 1 mps 721 mmHg 90%
    03:00 +1°C° 0.1 mm 1 mps 721 mmHg 90%
    04:00 +1°C° 0.1 mm 1 mps 720 mmHg 89%
    05:00 0°C° 0 mm 1 mps 720 mmHg 89%
    06:00 0°C° 0 mm 1 mps 720 mmHg 88%
    07:00 0°C° 0 mm 1 mps 720 mmHg 88%
    08:00 +2°C° 0 mm 1 mps 720 mmHg 86%
    09:00 +3°C° 0 mm 1 mps 719 mmHg 84%
    10:00 +4°C° 0 mm 1 mps 719 mmHg 82%
    11:00 +5°C° 0 mm 1 mps 718 mmHg 83%
    12:00 +5°C° 0 mm 1 mps 718 mmHg 84%
    13:00 +6°C° 0 mm 1 mps 717 mmHg 86%
    14:00 +5°C° 0 mm 1 mps 717 mmHg 87%
    15:00 +4°C° 0 mm 1 mps 717 mmHg 87%
    16:00 +4°C° 0 mm 1 mps 717 mmHg 88%
    17:00 +4°C° 0 mm 1 mps 716 mmHg 88%
    18:00 +3°C° 0 mm 1 mps 716 mmHg 87%
    19:00 +2°C° 0 mm 2 mps 716 mmHg 87%
    20:00 +2°C° 0 mm 2 mps 716 mmHg 86%
    21:00 +2°C° 0 mm 2 mps 716 mmHg 85%
    22:00 +2°C° 0 mm 2 mps 715 mmHg 84%
    23:00 +2°C° 0 mm 2 mps 715 mmHg 83%
    Show more